Weather History for Rochester, MN

Change the Weather History Date:

Friday, January 27, 2012

  Actual Average Record
Temperature  
Mean Temperature 26 °F 16 °F  
Max Temperature 35 °F 24 °F 50 °F (1919)
Min Temperature 16 °F 8 °F -26 °F (1950)
Degree Days  
Heating Degree Days 39 49  
Month to date heating degree days 1152 1336  
Since 1 July heating degree days 3739 4414  
Cooling Degree Days 0 0  
Month to date cooling degree days 0 0  
Year to date cooling degree days 0 0  
Moisture  
Dew Point 24 °F    
Average Humidity 80    
Maximum Humidity 96    
Minimum Humidity 63    
Precipitation  
Precipitation 0.01 in 0.03 in 0.52 in (1944)
Month to date precipitation 0.53 0.75  
Year to date precipitation 0.53 0.75  
Snow  
Snow T in 0.40 in 4.00 in (1949)
Month to date snowfall 7.5 10.4  
Since 1 July snowfall 16.1 29.8  
Snow Depth 4.00 in    
Sea Level Pressure  
Sea Level Pressure 29.84 in    
Wind  
Wind Speed 16 mph (WSW)    
Max Wind Speed 32 mph    
Max Gust Speed 38 mph    
Visibility 8 miles    
Events Rain , Snow    
T = Trace of Precipitation, MM = Missing Value Source: NWS Daily Summary

Daily Weather History Graph

Daily Weather History Graph

Search for Another Location

Airport:

Trip Planner

Search our weather history database for the weather conditions in past years. The results will help you decide how hot, cold, wet, or windy it might be!

Date:

Astronomy

Jan. 27, 2012 Rise Set
Actual Time 7:32 AM CST 5:13 PM CST
Civil Twilight 7:01 AM CST 5:44 PM CST
Nautical Twilight 6:26 AM CST 6:19 PM CST
Astronomical Twilight 5:52 AM CST 6:53 PM CST
Moon 9:16 AM CST (1/27) 10:17 PM CST (1/27)
Length of Visible Light 10h 42m
Length of Day
9h 40m
Waxing Crescent, 20% of the Moon is Illuminated
Jan 27
Waxing Crescent
Jan 30
First Quarter
Feb 7
Full
Feb 14
Last Quarter
Feb 21
New

Hourly Weather History & Observations

Time (CST) Temp. Windchill Dew Point Humidity Pressure Visibility Wind Dir Wind Speed Gust Speed Precip Events Conditions
12:54 AM 21.9 °F 11.7 °F 18.0 °F 85% 29.84 in 10.0 mi West 9.2 mph - N/A   Clear
1:54 AM 23.0 °F 12.4 °F 18.0 °F 81% 29.85 in 10.0 mi WNW 10.4 mph - N/A   Clear
2:54 AM 21.9 °F 10.4 °F 17.1 °F 82% 29.85 in 10.0 mi WNW 11.5 mph - N/A   Clear
3:54 AM 19.0 °F 7.5 °F 15.1 °F 85% 29.87 in 10.0 mi West 10.4 mph - N/A   Clear
4:54 AM 19.9 °F 11.1 °F 15.1 °F 81% 29.88 in 10.0 mi West 6.9 mph - N/A   Clear
5:54 AM 19.0 °F 11.1 °F 15.1 °F 85% 29.88 in 10.0 mi WSW 5.8 mph - N/A   Clear
6:54 AM 17.1 °F 8.7 °F 14.0 °F 88% 29.89 in 10.0 mi South 5.8 mph - N/A   Clear
7:54 AM 18.0 °F 8.7 °F 14.0 °F 84% 29.89 in 10.0 mi South 6.9 mph - N/A   Partly Cloudy
8:54 AM 19.9 °F 11.1 °F 16.0 °F 85% 29.88 in 10.0 mi SSW 6.9 mph - N/A   Overcast
9:54 AM 25.0 °F 14.8 °F 19.0 °F 78% 29.90 in 10.0 mi SSW 10.4 mph - N/A   Mostly Cloudy
10:54 AM 30.0 °F 19.5 °F 21.0 °F 69% 29.91 in 10.0 mi SSW 13.8 mph - N/A   Overcast
11:54 AM 32.0 °F 18.9 °F 21.9 °F 66% 29.90 in 10.0 mi SW 24.2 mph 28.8 mph N/A   Overcast
11:58 AM 32.0 °F 18.4 °F 23.0 °F 69% 29.84 in 7.0 mi SW 26.5 mph 32.2 mph 0.00 in Snow Light Snow
12:09 PM 30.2 °F 17.4 °F 26.6 °F 86% 29.83 in 1.8 mi SSW 20.7 mph 31.1 mph 0.00 in Snow Light Snow
12:21 PM 32.0 °F 19.8 °F 28.4 °F 87% 29.82 in 2.5 mi SSW 20.7 mph - 0.00 in Snow Light Snow
12:30 PM 33.8 °F 23.9 °F 28.4 °F 81% 29.82 in 8.0 mi SSW 15.0 mph - 0.00 in Snow Light Snow
12:54 PM 33.1 °F 20.6 °F 27.0 °F 78% 29.86 in 2.0 mi SW 23.0 mph 38.0 mph 0.00 in Snow Light Snow
1:12 PM 33.8 °F 21.9 °F 28.4 °F 81% 29.80 in 7.0 mi SSW 21.9 mph - 0.00 in Snow Light Snow
1:54 PM 32.0 °F 20.1 °F 28.9 °F 88% 29.82 in 10.0 mi South 19.6 mph - 0.00 in   Overcast
2:41 PM 33.8 °F 23.2 °F 28.4 °F 81% 29.77 in 10.0 mi SSW 17.3 mph - N/A   Overcast
2:54 PM 33.1 °F 20.9 °F 28.9 °F 85% 29.82 in 10.0 mi SSW 21.9 mph 29.9 mph N/A   Overcast
3:09 PM 33.8 °F 21.9 °F 30.2 °F 87% 29.77 in 9.0 mi SSW 21.9 mph 32.2 mph N/A   Overcast
3:47 PM 33.8 °F 21.0 °F 30.2 °F 87% 29.76 in 2.5 mi SSW 25.3 mph 33.4 mph 0.00 in Snow Light Snow
3:54 PM 33.1 °F 20.9 °F 30.0 °F 89% 29.82 in 1.8 mi SSW 21.9 mph 32.2 mph 0.00 in Snow Light Snow
4:01 PM 33.8 °F 21.9 °F 30.2 °F 87% 29.76 in 2.0 mi SSW 21.9 mph 29.9 mph 0.00 in Snow Light Snow
4:17 PM 33.8 °F 21.0 °F 30.2 °F 87% 29.76 in 8.0 mi SSW 25.3 mph 32.2 mph 0.00 in Rain Light Rain
4:35 PM 33.8 °F 22.2 °F 30.2 °F 87% 29.76 in 3.0 mi SW 20.7 mph - 0.00 in Rain Light Freezing Rain
4:54 PM 33.1 °F 21.5 °F 30.9 °F 92% 29.81 in 3.0 mi SW 19.6 mph - 0.00 in Rain Light Freezing Rain
5:03 PM 33.8 °F 21.9 °F 30.2 °F 87% 29.75 in 3.0 mi SW 21.9 mph - 0.00 in Rain Light Freezing Rain
5:54 PM 34.0 °F 22.4 °F 32.0 °F 92% 29.82 in 3.0 mi West 20.7 mph 28.8 mph 0.00 in Rain Light Freezing Rain
6:12 PM 32.0 °F 19.2 °F 28.4 °F 87% 29.78 in 3.0 mi WNW 23.0 mph 31.1 mph 0.01 in Rain Light Freezing Rain
6:54 PM 32.0 °F 20.8 °F 28.9 °F 88% 29.86 in 9.0 mi WNW 17.3 mph - 0.01 in Rain Light Freezing Rain
7:07 PM 32.0 °F 21.2 °F 28.4 °F 87% 29.80 in 9.0 mi WNW 16.1 mph 24.2 mph 0.00 in   Overcast
7:40 PM 32.0 °F 19.5 °F 26.6 °F 80% 29.81 in 10.0 mi WNW 21.9 mph 27.6 mph 0.00 in   Overcast
7:54 PM 32.0 °F 18.4 °F 26.1 °F 79% 29.88 in 10.0 mi NW 26.5 mph 33.4 mph 0.00 in   Overcast
8:20 PM 30.2 °F 15.9 °F 24.8 °F 80% 29.83 in 10.0 mi NW 26.5 mph 32.2 mph N/A   Overcast
8:27 PM 30.2 °F 16.2 °F 24.8 °F 80% 29.84 in 10.0 mi NNW 25.3 mph 32.2 mph N/A   Overcast
8:54 PM 30.0 °F 16.6 °F 23.0 °F 75% 29.91 in 10.0 mi NNW 23.0 mph - N/A   Overcast
9:13 PM 28.4 °F 15.1 °F 21.2 °F 74% 29.85 in 10.0 mi NW 20.7 mph - N/A   Scattered Clouds
9:54 PM 26.1 °F 12.0 °F 21.0 °F 81% 29.92 in 10.0 mi WNW 20.7 mph 31.1 mph N/A   Clear
10:54 PM 23.0 °F 8.3 °F 17.1 °F 78% 29.95 in 10.0 mi WNW 19.6 mph - N/A   Clear
11:54 PM 21.9 °F 6.2 °F 16.0 °F 78% 29.96 in 10.0 mi WNW 21.9 mph - N/A   Clear